Total_Precipitation_Accumulation
0.00 0.02 0.09 0.22 0.53 0.96 1.00 0.61 0.40 0.21 0.24 0.34 0.47 0.55 0.50 0.46 0.53 0.83 0.44 0.15 0.06 0.03 0.05 0.10 0.15 0.10 0.08 0.07 0.09 0.10 0.10 0.10 0.09 0.07 0.05 0.05 0.05 0.06 0.08 0.09 0.10 0.12 0.13 0.13 0.12 0.14 0.13 0.13 0.13
0.00 0.03 0.11 0.31 0.73 0.91 0.78 0.48 0.25 0.19 0.23 0.35 0.42 0.39 0.35 0.31 0.27 0.18 0.21 0.21 0.12 0.06 0.05 0.05 0.10 0.11 0.07 0.07 0.09 0.10 0.10 0.09 0.09 0.07 0.06 0.07 0.07 0.08 0.09 0.11 0.11 0.14 0.15 0.13 0.12 0.14 0.12 0.12 0.15
0.01 0.04 0.12 0.31 0.58 0.54 0.43 0.27 0.21 0.22 0.31 0.42 0.41 0.34 0.34 0.37 0.21 0.12 0.17 0.20 0.13 0.06 0.04 0.05 0.07 0.09 0.07 0.07 0.09 0.10 0.10 0.09 0.08 0.07 0.07 0.08 0.09 0.10 0.10 0.11 0.11 0.14 0.15 0.14 0.14 0.14 0.11 0.11 0.13
0.02 0.05 0.14 0.25 0.28 0.30 0.25 0.21 0.18 0.19 0.35 0.53 0.55 0.38 0.27 0.25 0.19 0.14 0.14 0.13 0.09 0.07 0.05 0.06 0.10 0.09 0.09 0.09 0.09 0.10 0.10 0.09 0.08 0.08 0.08 0.10 0.11 0.11 0.12 0.12 0.13 0.15 0.15 0.15 0.15 0.14 0.13 0.14 0.17
0.02 0.07 0.23 0.24 0.19 0.21 0.22 0.18 0.17 0.21 0.30 0.54 0.61 0.54 0.39 0.30 0.25 0.19 0.20 0.11 0.06 0.06 0.07 0.08 0.12 0.11 0.10 0.09 0.10 0.10 0.09 0.09 0.08 0.08 0.09 0.11 0.12 0.13 0.13 0.14 0.15 0.16 0.16 0.16 0.14 0.14 0.16 0.19 0.24
0.01 0.06 0.10 0.11 0.10 0.10 0.12 0.13 0.20 0.25 0.42 0.52 0.52 0.54 0.53 0.39 0.33 0.22 0.24 0.14 0.08 0.06 0.07 0.10 0.12 0.11 0.11 0.10 0.11 0.11 0.10 0.10 0.09 0.10 0.10 0.11 0.13 0.14 0.15 0.15 0.16 0.17 0.17 0.18 0.17 0.15 0.17 0.18 0.21
0.00 0.01 0.03 0.06 0.07 0.07 0.08 0.12 0.24 0.31 0.58 0.70 0.75 0.64 0.68 0.57 0.37 0.27 0.25 0.20 0.18 0.13 0.09 0.12 0.12 0.12 0.13 0.14 0.14 0.13 0.12 0.12 0.12 0.13 0.13 0.13 0.14 0.15 0.17 0.18 0.18 0.21 0.22 0.22 0.22 0.22 0.22 0.19 0.22
0.00 0.00 0.02 0.02 0.04 0.05 0.08 0.11 0.20 0.29 0.49 0.55 0.69 0.79 0.91 0.71 0.45 0.37 0.36 0.35 0.33 0.33 0.27 0.22 0.20 0.20 0.18 0.16 0.17 0.17 0.16 0.16 0.16 0.15 0.17 0.19 0.22 0.23 0.26 0.25 0.26 0.30 0.30 0.32 0.34 0.35 0.35 0.33 0.31
0.00 0.01 0.02 0.02 0.02 0.03 0.05 0.11 0.17 0.30 0.39 0.42 0.56 0.71 0.85 0.62 0.51 0.55 0.62 0.61 0.58 0.49 0.50 0.39 0.31 0.27 0.26 0.24 0.22 0.26 0.26 0.26 0.26 0.29 0.30 0.36 0.51 0.56 0.59 0.50 0.53 0.53 0.53 0.55 0.56 0.57 0.58 0.56 0.50
0.00 0.00 0.01 0.01 0.01 0.03 0.06 0.11 0.18 0.27 0.55 0.81 0.98 0.90 0.75 0.71 0.71 0.72 0.76 0.75 0.79 0.65 0.50 0.52 0.47 0.35 0.33 0.34 0.41 0.57 0.57 0.60 0.61 0.66 0.66 0.79 0.89 0.83 0.69 0.74 0.91 0.96 1.01 1.01 1.01 1.08 1.02 0.84 0.66
0.00 0.00 0.00 0.00 0.00 0.01 0.05 0.10 0.11 0.25 0.72 1.28 1.44 1.13 0.79 0.88 0.96 1.00 1.01 1.05 0.93 0.89 0.67 0.65 0.77 0.64 0.52 0.61 0.59 0.72 0.90 1.05 1.04 1.02 1.11 1.20 1.08 0.93 0.83 0.98 1.21 1.27 1.35 1.36 1.51 1.67 1.39 1.34 1.31
0.00 0.00 0.00 0.00 0.01 0.01 0.04 0.10 0.14 0.28 0.73 1.15 1.19 0.96 0.78 0.96 1.08 1.29 1.37 1.48 1.48 1.39 1.30 1.21 1.26 1.17 1.04 0.94 0.94 0.91 0.92 1.02 1.15 1.20 1.20 1.37 1.37 1.32 1.24 1.24 1.27 1.35 1.45 1.67 1.74 1.86 1.92 1.96 1.76
0.00 0.00 0.00 0.00 0.01 0.02 0.05 0.10 0.20 0.36 0.50 0.56 0.68 0.72 0.81 1.08 1.36 1.68 1.81 1.91 1.95 2.11 2.16 2.10 1.90 1.68 1.68 1.60 1.41 1.14 1.11 1.07 1.10 1.29 1.35 1.51 1.59 1.64 1.66 1.54 1.49 1.34 1.47 1.75 1.96 1.91 2.07 2.23 2.12
0.00 0.00 0.00 0.01 0.01 0.02 0.04 0.10 0.24 0.39 0.44 0.47 0.58 0.64 0.77 1.18 1.68 2.11 2.15 2.23 2.40 2.90 3.21 2.97 2.71 2.38 2.19 2.07 1.88 1.70 1.46 1.38 1.28 1.36 1.47 1.70 1.82 1.86 1.88 1.73 1.63 1.36 1.40 1.64 1.89 1.91 2.09 2.10 2.14
0.00 0.01 0.03 0.04 0.03 0.07 0.06 0.14 0.37 0.56 0.44 0.45 0.62 0.69 0.78 1.15 1.57 2.29 2.63 2.82 2.98 3.53 3.98 3.67 3.45 3.33 2.98 2.73 2.37 1.99 1.67 1.48 1.52 1.69 1.86 2.00 2.09 2.12 2.10 1.92 1.64 1.48 1.64 1.74 1.75 1.81 2.19 2.04 1.91
0.01 0.01 0.06 0.07 0.05 0.08 0.09 0.36 0.56 0.59 0.49 0.53 0.78 0.77 0.79 1.08 1.55 2.27 2.86 3.26 3.51 3.75 4.04 4.23 3.86 4.04 3.84 3.36 2.90 2.50 2.23 2.13 2.01 2.01 2.14 2.06 2.04 2.07 2.20 1.89 1.56 1.69 1.87 1.82 1.77 1.82 2.05 2.04 2.13
0.01 0.03 0.07 0.10 0.10 0.10 0.14 0.51 0.67 0.48 0.53 0.65 0.76 0.84 0.93 1.16 1.51 1.98 2.60 3.11 3.58 4.04 4.42 4.67 4.70 4.60 4.12 3.60 3.17 2.94 2.71 2.53 2.21 1.85 1.68 1.56 1.49 1.51 1.54 1.25 1.15 1.38 1.46 1.34 1.29 1.55 1.72 1.75 1.87
0.02 0.05 0.11 0.23 0.18 0.12 0.17 0.44 0.58 0.52 0.52 0.70 0.81 0.82 0.97 1.19 1.53 1.91 2.41 2.85 3.41 4.13 4.88 5.17 5.04 4.45 3.89 3.38 2.88 2.70 2.43 2.24 1.98 1.61 1.37 1.17 1.10 1.08 1.09 0.88 0.84 1.09 1.18 1.15 1.25 1.32 1.35 1.29 1.37
0.02 0.05 0.11 0.19 0.13 0.13 0.23 0.43 0.50 0.55 0.62 0.79 0.93 0.91 0.98 1.12 1.47 1.87 2.31 2.82 3.46 4.27 5.14 5.35 4.89 4.19 3.53 2.94 2.40 2.03 1.75 1.58 1.54 1.30 1.09 1.02 1.01 0.97 1.04 0.86 0.95 1.07 1.08 1.09 1.14 1.16 1.07 0.91 1.06
0.05 0.07 0.12 0.16 0.11 0.13 0.20 0.41 0.60 0.71 0.83 0.82 0.87 0.93 0.92 1.13 1.51 1.94 2.47 2.89 3.26 3.75 4.42 4.54 4.04 3.32 2.57 2.06 1.84 1.68 1.52 1.28 1.13 1.03 0.95 0.80 0.81 0.83 0.88 0.84 0.71 0.76 0.80 0.73 0.76 0.94 0.96 0.82 0.93
0.07 0.08 0.12 0.14 0.07 0.12 0.20 0.49 0.77 0.89 0.75 0.61 0.53 0.64 0.68 0.84 1.31 1.98 2.48 2.78 3.06 3.22 3.16 3.14 2.81 2.22 1.79 1.54 1.41 1.29 1.25 1.15 0.95 0.82 0.71 0.60 0.58 0.59 0.62 0.62 0.61 0.67 0.71 0.71 0.71 0.75 0.80 0.73 0.70
0.07 0.05 0.05 0.05 0.06 0.20 0.29 0.75 0.99 0.89 0.74 0.60 0.46 0.43 0.47 0.65 1.08 1.83 2.14 2.20 2.27 2.31 2.07 1.98 1.95 1.68 1.44 1.28 1.14 0.97 0.81 0.79 0.69 0.63 0.58 0.53 0.49 0.48 0.46 0.46 0.46 0.52 0.60 0.69 0.61 0.61 0.65 0.65 0.56
0.05 0.04 0.04 0.07 0.11 0.25 0.43 0.73 1.01 0.84 0.78 0.59 0.42 0.37 0.42 0.53 0.79 1.13 1.19 1.30 1.40 1.42 1.37 1.47 1.64 1.61 1.46 1.32 1.22 1.11 0.87 0.73 0.66 0.62 0.59 0.54 0.51 0.46 0.42 0.42 0.42 0.42 0.43 0.47 0.51 0.58 0.59 0.60 0.55
0.04 0.05 0.11 0.23 0.34 0.66 0.67 0.73 1.04 0.88 0.67 0.44 0.33 0.34 0.28 0.35 0.52 0.71 0.75 0.78 0.83 0.83 0.91 1.09 1.41 1.51 1.43 1.32 1.22 1.07 0.90 0.78 0.66 0.57 0.52 0.48 0.48 0.49 0.47 0.45 0.48 0.45 0.41 0.44 0.47 0.49 0.50 0.55 0.59
0.05 0.09 0.26 0.60 1.00 1.12 0.68 0.71 0.99 0.63 0.42 0.30 0.22 0.20 0.25 0.35 0.44 0.57 0.70 0.70 0.64 0.60 0.66 0.80 0.99 1.08 1.09 1.13 1.15 1.07 1.00 0.85 0.70 0.59 0.46 0.41 0.41 0.41 0.46 0.49 0.51 0.50 0.49 0.47 0.46 0.46 0.48 0.54 0.62
0.07 0.09 0.18 0.36 0.45 0.56 0.57 0.95 1.07 0.54 0.35 0.23 0.15 0.13 0.18 0.25 0.31 0.34 0.43 0.43 0.43 0.47 0.47 0.55 0.68 0.74 0.79 0.87 0.95 0.92 0.88 0.81 0.68 0.64 0.49 0.40 0.40 0.43 0.46 0.45 0.45 0.46 0.47 0.47 0.49 0.43 0.43 0.53 0.62
0.06 0.06 0.07 0.08 0.14 0.35 0.64 0.86 0.74 0.46 0.29 0.17 0.12 0.10 0.10 0.12 0.14 0.16 0.16 0.18 0.23 0.30 0.39 0.47 0.56 0.60 0.64 0.70 0.77 0.76 0.74 0.74 0.73 0.68 0.56 0.46 0.49 0.50 0.51 0.45 0.45 0.44 0.45 0.48 0.50 0.50 0.53 0.59 0.62
0.07 0.06 0.06 0.05 0.15 0.33 0.57 0.85 0.83 0.54 0.34 0.17 0.11 0.09 0.08 0.08 0.07 0.09 0.11 0.11 0.11 0.14 0.26 0.41 0.46 0.54 0.62 0.65 0.63 0.62 0.69 0.68 0.69 0.65 0.57 0.55 0.52 0.50 0.53 0.53 0.50 0.48 0.48 0.54 0.61 0.60 0.60 0.67 0.76
0.06 0.06 0.06 0.06 0.08 0.19 0.42 0.62 0.48 0.33 0.19 0.14 0.10 0.07 0.08 0.08 0.07 0.07 0.08 0.08 0.09 0.11 0.17 0.27 0.35 0.42 0.46 0.50 0.53 0.63 0.68 0.66 0.62 0.63 0.58 0.57 0.52 0.50 0.51 0.52 0.54 0.52 0.58 0.75 0.92 0.89 0.81 0.86 0.93
0.06 0.06 0.07 0.09 0.09 0.13 0.24 0.31 0.22 0.21 0.18 0.15 0.12 0.09 0.10 0.10 0.09 0.10 0.09 0.07 0.07 0.10 0.12 0.19 0.21 0.23 0.26 0.32 0.39 0.47 0.58 0.58 0.57 0.60 0.63 0.61 0.57 0.50 0.44 0.44 0.46 0.46 0.55 0.70 0.99 1.13 1.14 1.11 1.02